EDT,Max TemperatureF,Mean TemperatureF,Min TemperatureF,Max Dew PointF,MeanDew PointF,Min DewpointF,Max Humidity, Mean Humidity, Min Humidity, Max Sea Level PressureIn, Mean Sea Level PressureIn, Min Sea Level PressureIn, Max VisibilityMiles, Mean VisibilityMiles, Min VisibilityMiles, Max Wind SpeedMPH, Mean Wind SpeedMPH, Max Gust SpeedMPH,PrecipitationIn, CloudCover, Events, WindDirDegrees
2013-3-1,30,28,24,26,21,17,86,76,69,30.01,29.92,29.81,10,9,7,16,12,18,0.01,8,Snow,327
2013-3-2,26,24,21,18,16,15,80,75,69,30.01,29.97,29.89,10,9,6,14,11,,0.00,8,Snow,329
2013-3-3,25,22,19,19,17,14,93,80,69,29.99,29.91,29.86,10,4,1,16,10,,0.01,8,Snow,313
2013-3-4,30,24,19,21,17,14,81,72,63,30.12,30.04,29.92,10,9,4,18,12,24,0.00,7,Snow,284
2013-3-5,32,24,17,22,19,12,86,74,61,30.14,30.07,29.98,10,10,10,18,7,24,0.00,3,,17
2013-3-6,39,32,26,30,28,21,85,78,67,30.18,30.08,29.97,10,10,10,16,11,,0.00,6,,60
2013-3-7,37,32,28,31,28,26,93,83,62,30.32,30.25,30.17,10,7,0,9,6,,0.01,7,Fog-Snow,18
2013-3-8,41,34,27,30,27,21,93,79,47,30.44,30.36,30.28,10,9,2,15,7,20,0.00,6,Snow,341
2013-3-9,46,34,23,34,27,21,93,79,52,30.46,30.36,30.20,10,8,4,9,3,,0.00,3,,126
2013-3-10,63,48,34,34,28,23,75,45,33,30.19,30.05,29.94,10,10,10,17,6,24,0.00,5,,186
2013-3-11,61,53,45,43,32,28,89,46,32,29.94,29.78,29.62,10,10,9,21,11,33,0.06,6,Rain,185
2013-3-12,43,39,33,43,31,26,93,78,70,29.93,29.83,29.68,10,10,9,24,17,30,0.02,8,Rain,236
2013-3-13,35,28,21,30,24,10,100,79,58,30.04,29.89,29.82,10,5,0,31,15,39,0.08,8,Fog-Snow-Hail,255
2013-3-14,32,26,21,16,11,6,80,56,38,30.15,30.10,30.02,10,10,6,24,16,30,0.00,4,Snow,296
2013-3-15,37,32,26,29,24,17,82,73,54,30.09,29.86,29.75,10,8,2,22,13,30,0.00,7,Snow,256
2013-3-16,28,24,21,20,17,14,78,68,60,30.04,29.90,29.83,10,9,4,13,7,,0.00,6,Snow,56
2013-3-17,30,24,19,19,15,7,88,68,41,30.37,30.18,30.01,10,9,4,16,7,16,0.00,5,Snow,329
2013-3-18,35,27,19,30,21,9,86,73,42,30.35,29.96,29.67,10,7,2,20,11,28,0.03,7,Rain-Snow,116
2013-3-19,36,30,24,33,24,17,89,75,59,29.88,29.75,29.63,10,8,2,28,18,39,0.01,8,Rain-Snow,241
2013-3-20,32,28,21,21,18,13,88,72,52,29.88,29.84,29.79,10,7,2,24,14,29,0.00,6,Snow,255
2013-3-21,28,24,19,25,19,12,93,75,56,29.86,29.77,29.71,10,6,1,20,13,25,0.00,6,Snow,260
2013-3-22,32,28,24,25,22,19,88,79,64,29.99,29.84,29.75,10,5,1,18,14,23,0.01,8,Snow,267
2013-3-23,39,32,26,25,22,20,81,70,46,30.07,30.00,29.93,10,10,9,17,11,20,0.00,6,,283
2013-3-24,37,29,21,26,21,18,93,69,54,30.06,29.92,29.75,10,10,10,15,7,,0.00,4,,14
2013-3-25,41,36,30,29,26,23,86,70,57,29.78,29.69,29.63,10,10,10,18,12,22,0.00,5,,51
2013-3-26,48,38,30,28,26,22,82,63,37,29.99,29.88,29.78,10,10,10,13,8,,0.00,6,,303
2013-3-27,45,37,30,33,29,23,92,76,56,30.10,30.03,29.96,10,9,2,25,10,32,0.05,7,Rain-Snow,282
2013-3-28,44,38,33,33,30,24,89,79,49,30.24,30.16,30.06,10,10,9,12,8,,0.00,8,Rain,286
2013-3-29,50,41,32,31,29,26,85,71,39,30.24,30.21,30.17,10,10,9,17,6,22,0.00,5,Rain-Snow,250
2013-3-30,50,36,24,31,25,20,93,68,37,30.25,30.18,30.04,10,7,0,15,2,24,0.00,1,Fog,202
2013-3-31,57,46,36,41,30,21,93,60,34,30.02,29.76,29.61,10,9,4,22,7,30,0.01,6,Rain,198